When you browse on this site, cookies collect data to enhance your experience and personalize the content and advertising you see.
Visit our Privacy Policy to learn more. By continuing to use the site, you agree to this use of cookies and data.
  • In Österreich
  • Länderverzeichnis
  • Für 7 Tage
  • Wassertemperatur
  • Satellitenkarten
  • Wetterkarte
  • News
  • Widgets
  • user-avatar
    Anmelden

    Stündliche Wetter Copiague

    Heute, 27 Juni, Donnerstag

    Zeit Temperatur Niederschläge Wind Luftdruck Luftfeuchtigkeit
    00:00 +27°C° 0 mm 3 m/S 763 mmHg 60%
    01:00 +27°C° 0 mm 2 m/S 763 mmHg 60%
    02:00 +26°C° 0 mm 2 m/S 763 mmHg 61%
    03:00 +26°C° 0 mm 2 m/S 763 mmHg 63%
    04:00 +25°C° 0 mm 2 m/S 763 mmHg 64%
    05:00 +26°C° 0 mm 2 m/S 763 mmHg 62%
    06:00 +26°C° 0 mm 2 m/S 764 mmHg 59%
    07:00 +27°C° 0 mm 1 m/S 764 mmHg 56%
    08:00 +28°C° 0 mm 1 m/S 764 mmHg 51%
    09:00 +30°C° 0 mm 1 m/S 764 mmHg 45%
    10:00 +31°C° 0 mm 1 m/S 764 mmHg 40%
    11:00 +32°C° 0 mm 1 m/S 764 mmHg 36%
    12:00 +33°C° 0 mm 1 m/S 764 mmHg 32%
    13:00 +35°C° 0 mm 2 m/S 764 mmHg 29%
    14:00 +35°C° 0 mm 2 m/S 764 mmHg 29%
    15:00 +35°C° 0 mm 2 m/S 763 mmHg 30%
    16:00 +34°C° 0 mm 3 m/S 763 mmHg 31%
    17:00 +33°C° 0 mm 3 m/S 763 mmHg 35%
    18:00 +31°C° 0 mm 3 m/S 763 mmHg 39%
    19:00 +30°C° 0 mm 3 m/S 764 mmHg 43%
    20:00 +29°C° 0 mm 3 m/S 764 mmHg 46%
    21:00 +28°C° 0 mm 2 m/S 764 mmHg 49%
    22:00 +28°C° 0 mm 2 m/S 764 mmHg 52%
    23:00 +28°C° 0 mm 2 m/S 764 mmHg 51%

    Morgen, 28 Juni, Freitag

    Zeit Temperatur Niederschläge Wind Luftdruck Luftfeuchtigkeit
    00:00 +27°C° 0 mm 2 m/S 764 mmHg 51%
    01:00 +27°C° 0 mm 2 m/S 764 mmHg 50%
    02:00 +27°C° 0 mm 2 m/S 764 mmHg 50%
    03:00 +26°C° 0 mm 2 m/S 764 mmHg 51%
    04:00 +26°C° 0 mm 2 m/S 764 mmHg 52%
    05:00 +26°C° 0 mm 2 m/S 765 mmHg 50%
    06:00 +26°C° 0 mm 2 m/S 765 mmHg 48%
    07:00 +27°C° 0 mm 3 m/S 765 mmHg 46%
    08:00 +28°C° 0 mm 2 m/S 765 mmHg 41%
    09:00 +30°C° 0 mm 2 m/S 765 mmHg 37%
    10:00 +31°C° 0 mm 1 m/S 765 mmHg 33%
    11:00 +32°C° 0 mm 2 m/S 765 mmHg 30%
    12:00 +34°C° 0 mm 2 m/S 765 mmHg 28%
    13:00 +36°C° 0 mm 2 m/S 765 mmHg 26%
    14:00 +35°C° 0 mm 3 m/S 764 mmHg 28%
    15:00 +35°C° 0 mm 3 m/S 764 mmHg 30%
    16:00 +34°C° 0 mm 3 m/S 763 mmHg 31%
    17:00 +33°C° 0 mm 4 m/S 763 mmHg 36%
    18:00 +32°C° 0 mm 4 m/S 763 mmHg 40%
    19:00 +29°C° 0 mm 4 m/S 763 mmHg 44%
    20:00 +28°C° 0 mm 4 m/S 763 mmHg 48%
    21:00 +28°C° 0 mm 4 m/S 763 mmHg 52%
    22:00 +27°C° 0 mm 4 m/S 763 mmHg 56%
    23:00 +27°C° 0 mm 4 m/S 763 mmHg 59%

    übermorgen, 29 Juni, Samstag

    Zeit Temperatur Niederschläge Wind Luftdruck Luftfeuchtigkeit
    00:00 +26°C° 0 mm 4 m/S 763 mmHg 63%
    01:00 +26°C° 0 mm 4 m/S 763 mmHg 66%
    02:00 +26°C° 0 mm 4 m/S 763 mmHg 66%
    03:00 +26°C° 0 mm 3 m/S 763 mmHg 66%
    04:00 +26°C° 0 mm 3 m/S 762 mmHg 66%
    05:00 +27°C° 0 mm 3 m/S 762 mmHg 64%
    06:00 +27°C° 0 mm 3 m/S 762 mmHg 63%
    07:00 +28°C° 0 mm 4 m/S 762 mmHg 61%
    08:00 +29°C° 0 mm 4 m/S 762 mmHg 57%
    09:00 +30°C° 0 mm 5 m/S 762 mmHg 54%
    10:00 +32°C° 0 mm 5 m/S 761 mmHg 50%
    11:00 +33°C° 0 mm 5 m/S 761 mmHg 48%
    12:00 +33°C° 0 mm 6 m/S 760 mmHg 47%
    13:00 +34°C° 0 mm 6 m/S 760 mmHg 45%
    14:00 +34°C° 0 mm 7 m/S 759 mmHg 47%
    15:00 +33°C° 0 mm 7 m/S 758 mmHg 48%
    16:00 +33°C° 0 mm 7 m/S 758 mmHg 50%
    17:00 +33°C° 0.3 mm 7 m/S 758 mmHg 49%
    18:00 +33°C° 0.3 mm 6 m/S 758 mmHg 48%
    19:00 +33°C° 0.3 mm 6 m/S 758 mmHg 46%
    20:00 +33°C° 1 mm 5 m/S 757 mmHg 49%
    21:00 +32°C° 1 mm 5 m/S 757 mmHg 51%
    22:00 +30°C° 1 mm 5 m/S 757 mmHg 53%
    23:00 +30°C° 0 mm 5 m/S 757 mmHg 55%

    30 Juni, Sonntag

    Zeit Temperatur Niederschläge Wind Luftdruck Luftfeuchtigkeit
    00:00 +29°C° 0 mm 5 m/S 757 mmHg 57%
    01:00 +28°C° 0 mm 5 m/S 757 mmHg 60%
    02:00 +27°C° 0 mm 5 m/S 757 mmHg 61%
    03:00 +27°C° 0 mm 5 m/S 757 mmHg 62%
    04:00 +26°C° 0 mm 4 m/S 756 mmHg 64%
    05:00 +26°C° 0 mm 4 m/S 756 mmHg 61%
    06:00 +27°C° 0 mm 5 m/S 756 mmHg 58%
    07:00 +27°C° 0 mm 5 m/S 756 mmHg 55%
    08:00 +28°C° 0 mm 6 m/S 756 mmHg 49%
    09:00 +30°C° 0 mm 6 m/S 756 mmHg 43%
    10:00 +32°C° 0 mm 7 m/S 756 mmHg 37%
    11:00 +33°C° 0 mm 7 m/S 755 mmHg 35%
    12:00 +33°C° 0 mm 7 m/S 755 mmHg 34%
    13:00 +34°C° 0 mm 7 m/S 754 mmHg 33%
    14:00 +34°C° 0 mm 7 m/S 754 mmHg 31%
    15:00 +34°C° 0 mm 8 m/S 754 mmHg 29%
    16:00 +34°C° 0 mm 8 m/S 754 mmHg 28%
    17:00 +33°C° 0 mm 8 m/S 754 mmHg 30%
    18:00 +31°C° 0 mm 8 m/S 755 mmHg 33%
    19:00 +29°C° 0 mm 8 m/S 755 mmHg 35%
    20:00 +28°C° 0 mm 7 m/S 756 mmHg 39%
    21:00 +27°C° 0 mm 7 m/S 756 mmHg 43%
    22:00 +24°C° 0 mm 6 m/S 757 mmHg 47%
    23:00 +24°C° 0 mm 6 m/S 757 mmHg 48%

    1 Juli, Montag

    Zeit Temperatur Niederschläge Wind Luftdruck Luftfeuchtigkeit
    00:00 +23°C° 0 mm 5 m/S 757 mmHg 49%
    01:00 +23°C° 0 mm 5 m/S 757 mmHg 50%
    02:00 +22°C° 0 mm 5 m/S 757 mmHg 50%
    03:00 +22°C° 0 mm 5 m/S 757 mmHg 51%
    04:00 +21°C° 0 mm 5 m/S 757 mmHg 51%
    05:00 +22°C° 0 mm 4 m/S 758 mmHg 50%
    06:00 +22°C° 0 mm 4 m/S 758 mmHg 48%
    07:00 +23°C° 0 mm 4 m/S 758 mmHg 47%
    08:00 +25°C° 0 mm 4 m/S 758 mmHg 43%
    09:00 +26°C° 0 mm 3 m/S 758 mmHg 40%
    10:00 +28°C° 0 mm 3 m/S 758 mmHg 36%
    11:00 +29°C° 0 mm 3 m/S 758 mmHg 33%
    12:00 +30°C° 0 mm 3 m/S 758 mmHg 30%
    13:00 +33°C° 0 mm 3 m/S 757 mmHg 27%
    14:00 +32°C° 0 mm 4 m/S 757 mmHg 29%
    15:00 +32°C° 0 mm 4 m/S 757 mmHg 30%
    16:00 +32°C° 0 mm 5 m/S 756 mmHg 32%
    17:00 +29°C° 0 mm 5 m/S 756 mmHg 38%
    18:00 +28°C° 0 mm 5 m/S 756 mmHg 44%
    19:00 +27°C° 0 mm 5 m/S 756 mmHg 50%
    20:00 +27°C° 0.1 mm 5 m/S 756 mmHg 54%
    21:00 +27°C° 0.1 mm 5 m/S 756 mmHg 57%
    22:00 +27°C° 0.1 mm 5 m/S 756 mmHg 61%
    23:00 +27°C° 0.5 mm 5 m/S 755 mmHg 64%

    2 Juli, Dienstag

    Zeit Temperatur Niederschläge Wind Luftdruck Luftfeuchtigkeit
    00:00 +27°C° 0.5 mm 5 m/S 755 mmHg 68%
    01:00 +26°C° 0.5 mm 6 m/S 754 mmHg 71%
    02:00 +26°C° 0.1 mm 5 m/S 754 mmHg 71%
    03:00 +27°C° 0.1 mm 5 m/S 754 mmHg 72%
    04:00 +27°C° 0.1 mm 4 m/S 754 mmHg 72%
    05:00 +27°C° 0 mm 4 m/S 754 mmHg 69%
    06:00 +27°C° 0 mm 5 m/S 754 mmHg 66%
    07:00 +28°C° 0 mm 5 m/S 755 mmHg 64%
    08:00 +29°C° 0 mm 4 m/S 755 mmHg 58%
    09:00 +29°C° 0 mm 4 m/S 755 mmHg 52%
    10:00 +30°C° 0 mm 4 m/S 755 mmHg 46%
    11:00 +33°C° 0 mm 4 m/S 755 mmHg 41%
    12:00 +34°C° 0 mm 4 m/S 754 mmHg 37%
    13:00 +35°C° 0 mm 4 m/S 754 mmHg 32%
    14:00 +35°C° 0 mm 4 m/S 754 mmHg 31%
    15:00 +35°C° 0 mm 4 m/S 754 mmHg 31%
    16:00 +36°C° 0 mm 4 m/S 754 mmHg 30%
    17:00 +35°C° 0 mm 4 m/S 754 mmHg 32%
    18:00 +34°C° 0 mm 4 m/S 754 mmHg 33%
    19:00 +33°C° 0 mm 4 m/S 755 mmHg 35%
    20:00 +33°C° 0 mm 4 m/S 755 mmHg 38%
    21:00 +32°C° 0 mm 4 m/S 756 mmHg 42%
    22:00 +30°C° 0 mm 4 m/S 756 mmHg 46%
    23:00 +29°C° 0 mm 3 m/S 756 mmHg 48%
    Mehr zeigen